Location: Grand Rapids
(42.9630°N, 85.6680°W)
Time: 06:52:15
(UTC-04:00)

Tiros 1 - Pass Details

Date: 25 April 2025
Orbit: 620 x 652 km, 48.4° (Epoch: 13 May)

Event Time Altitude Azimuth Distance (km) Brightness Sun altitude
Exits shadow 03:32:43 21° 106° (ESE) 1,467 9.1 -28.1°
Drops below altitude 10° 03:34:55 10° 82° (E) 2,052 10.2 -27.9°
Sets 03:37:34 0° 70° (ENE) 2,968 11.3 -27.7°
